Time,TemperatureF,DewpointF,PressureIn,WindDirection,WindDirectionDegrees,WindSpeedMPH,WindSpeedGustMPH,Humidity,HourlyPrecipIn,Conditions,Clouds,dailyrainin,SoftwareType,DateUTC
2013-07-05 00:01:00,77.9,69.7,30.13,WSW,244,0.0,0.0,76,0.00,CLR,CLR,0.00,WeatherDisplay:10.36,2013-07-05 04:01:00,
2013-07-05 00:02:00,77.9,69.7,30.13,WSW,244,0.0,0.0,76,0.00,CLR,CLR,0.00,WeatherDisplay:10.36,2013-07-05 04:02:00,
2013-07-05 00:03:00,77.9,69.7,30.13,WSW,244,0.0,0.0,76,0.00,CLR,CLR,0.00,WeatherDisplay:10.36,2013-07-05 04:03:00,
2013-07-05 00:08:00,77.7,69.5,30.13,WSW,244,0.0,0.0,76,0.00,CLR,CLR,0.00,WeatherDisplay:10.36,2013-07-05 04:08:00,
2013-07-05 00:13:00,77.6,69.4,30.13,WSW,244,0.0,0.0,76,0.00,CLR,CLR,0.00,WeatherDisplay:10.36,2013-07-05 04:13:00,
2013-07-05 00:18:00,77.6,69.8,30.13,WSW,244,0.0,0.0,77,0.00,CLR,CLR,0.00,WeatherDisplay:10.36,2013-07-05 04:18:00,
2013-07-05 00:23:00,77.4,69.6,30.14,WSW,244,1.2,0.0,77,0.00,CLR,CLR,0.00,WeatherDisplay:10.36,2013-07-05 04:23:00,
2013-07-05 00:29:00,77.4,70.0,30.13,WSW,244,0.0,0.0,78,0.00,CLR,CLR,0.00,WeatherDisplay:10.36,2013-07-05 04:29:00,
2013-07-05 00:34:00,77.2,69.4,30.14,WSW,244,0.0,0.0,77,0.00,CLR,CLR,0.00,WeatherDisplay:10.36,2013-07-05 04:34:00,
2013-07-05 00:39:00,77.2,69.8,30.13,WSW,244,0.0,0.0,78,0.00,CLR,CLR,0.00,WeatherDisplay:10.36,2013-07-05 04:39:00,
2013-07-05 00:44:00,77.2,69.8,30.14,WSW,245,1.2,1.2,78,0.00,CLR,CLR,0.00,WeatherDisplay:10.36,2013-07-05 04:44:00,
2013-07-05 00:49:00,77.0,69.6,30.14,WSW,245,1.2,0.0,78,0.00,CLR,CLR,0.00,WeatherDisplay:10.36,2013-07-05 04:49:00,
2013-07-05 00:54:00,77.0,69.6,30.14,WSW,245,1.2,0.0,78,0.00,CLR,CLR,0.00,WeatherDisplay:10.36,2013-07-05 04:54:00,
2013-07-05 00:59:00,77.0,69.6,30.14,WSW,245,0.0,0.0,78,0.00,CLR,CLR,0.00,WeatherDisplay:10.36,2013-07-05 04:59:00,
2013-07-05 01:04:00,76.8,69.4,30.14,WSW,245,0.0,0.0,78,0.00,CLR,CLR,0.00,WeatherDisplay:10.36,2013-07-05 05:04:00,
2013-07-05 01:09:00,76.8,69.8,30.14,WSW,245,0.0,0.0,79,0.00,CLR,CLR,0.00,WeatherDisplay:10.36,2013-07-05 05:09:00,
2013-07-05 01:15:00,76.7,69.7,30.14,WSW,258,2.3,2.3,79,0.00,CLR,CLR,0.00,WeatherDisplay:10.36,2013-07-05 05:15:00,
2013-07-05 01:20:00,76.7,69.7,30.14,WSW,255,0.0,2.0,79,0.00,CLR,CLR,0.00,WeatherDisplay:10.36,2013-07-05 05:20:00,
2013-07-05 01:25:00,76.5,69.5,30.14,WSW,255,1.2,0.0,79,0.00,CLR,CLR,0.00,WeatherDisplay:10.36,2013-07-05 05:25:00,
2013-07-05 01:30:00,76.5,69.9,30.14,WSW,257,0.0,0.1,80,0.00,CLR,CLR,0.00,WeatherDisplay:10.36,2013-07-05 05:30:00,
2013-07-05 01:35:00,76.3,69.7,30.14,WSW,258,0.0,0.0,80,0.00,CLR,CLR,0.00,WeatherDisplay:10.36,2013-07-05 05:35:00,
2013-07-05 01:40:00,76.3,70.0,30.14,WSW,258,0.0,0.0,81,0.00,CLR,CLR,0.00,WeatherDisplay:10.36,2013-07-05 05:40:00,
2013-07-05 01:46:00,76.1,69.8,30.13,West,259,2.0,2.0,81,0.00,CLR,CLR,0.00,WeatherDisplay:10.36,2013-07-05 05:46:00,
2013-07-05 01:51:00,76.1,69.8,30.13,West,259,0.0,0.0,81,0.00,CLR,CLR,0.00,WeatherDisplay:10.36,2013-07-05 05:51:00,
2013-07-05 01:56:00,76.0,69.7,30.13,WSW,252,0.0,0.0,81,0.00,CLR,CLR,0.00,WeatherDisplay:10.36,2013-07-05 05:56:00,
2013-07-05 02:01:00,76.0,70.1,30.13,WSW,245,0.0,0.0,82,0.00,CLR,CLR,0.00,WeatherDisplay:10.36,2013-07-05 06:01:00,
2013-07-05 02:06:00,75.8,69.9,30.14,West,277,1.2,1.2,82,0.00,CLR,CLR,0.00,WeatherDisplay:10.36,2013-07-05 06:06:00,
2013-07-05 02:11:00,75.6,69.7,30.13,West,271,0.0,0.0,82,0.00,CLR,CLR,0.00,WeatherDisplay:10.36,2013-07-05 06:11:00,
2013-07-05 02:17:00,75.6,70.1,30.13,WSW,256,0.0,1.1,83,0.00,CLR,CLR,0.00,WeatherDisplay:10.36,2013-07-05 06:17:00,
2013-07-05 02:22:00,75.6,70.1,30.13,WSW,255,2.3,0.0,83,0.00,CLR,CLR,0.00,WeatherDisplay:10.36,2013-07-05 06:22:00,
2013-07-05 02:27:00,75.4,69.9,30.13,WSW,255,2.0,2.0,83,0.00,CLR,CLR,0.00,WeatherDisplay:10.36,2013-07-05 06:27:00,
2013-07-05 02:32:00,75.4,69.9,30.13,WSW,255,0.0,0.0,83,0.00,CLR,CLR,0.00,WeatherDisplay:10.36,2013-07-05 06:32:00,
2013-07-05 02:37:00,75.4,70.2,30.13,WSW,255,0.0,0.0,84,0.00,CLR,CLR,0.00,WeatherDisplay:10.36,2013-07-05 06:37:00,
2013-07-05 02:42:00,75.3,70.1,30.13,WSW,246,2.3,2.3,84,0.00,CLR,CLR,0.00,WeatherDisplay:10.36,2013-07-05 06:42:00,
2013-07-05 02:47:00,75.1,69.9,30.13,WSW,246,0.0,0.0,84,0.00,CLR,CLR,0.00,WeatherDisplay:10.36,2013-07-05 06:47:00,
2013-07-05 02:52:00,75.1,69.9,30.13,WSW,246,1.2,0.0,84,0.00,CLR,CLR,0.00,WeatherDisplay:10.36,2013-07-05 06:52:00,
2013-07-05 02:58:00,74.9,69.7,30.13,WSW,246,1.2,1.2,84,0.00,CLR,CLR,0.00,WeatherDisplay:10.36,2013-07-05 06:58:00,
2013-07-05 03:03:00,74.9,70.1,30.13,WSW,246,0.0,0.0,85,0.00,CLR,CLR,0.00,WeatherDisplay:10.36,2013-07-05 07:03:00,
2013-07-05 03:08:00,74.9,70.1,30.13,WSW,246,0.0,0.0,85,0.00,CLR,CLR,0.00,WeatherDisplay:10.36,2013-07-05 07:08:00,
2013-07-05 03:13:00,74.7,70.2,30.13,WSW,246,0.0,0.0,86,0.00,CLR,CLR,0.00,WeatherDisplay:10.36,2013-07-05 07:13:00,
2013-07-05 03:18:00,74.6,70.1,30.13,WSW,246,0.0,0.0,86,0.00,CLR,CLR,0.00,WeatherDisplay:10.36,2013-07-05 07:18:00,
2013-07-05 03:24:00,74.6,70.1,30.13,WSW,246,0.0,0.0,86,0.00,CLR,CLR,0.00,WeatherDisplay:10.36,2013-07-05 07:24:00,
2013-07-05 03:29:00,74.4,70.3,30.13,WSW,246,0.0,0.0,87,0.00,CLR,CLR,0.00,WeatherDisplay:10.36,2013-07-05 07:29:00,
2013-07-05 03:34:00,74.2,70.1,30.13,WSW,246,0.0,0.0,87,0.00,CLR,CLR,0.00,WeatherDisplay:10.36,2013-07-05 07:34:00,
2013-07-05 03:39:00,74.2,70.1,30.13,WSW,246,0.0,0.0,87,0.00,CLR,CLR,0.00,WeatherDisplay:10.36,2013-07-05 07:39:00,
2013-07-05 03:44:00,74.2,70.1,30.13,WSW,246,0.0,0.0,87,0.00,CLR,CLR,0.00,WeatherDisplay:10.36,2013-07-05 07:44:00,
2013-07-05 03:49:00,74.0,70.2,30.13,WSW,246,0.0,0.0,88,0.00,CLR,CLR,0.00,WeatherDisplay:10.36,2013-07-05 07:49:00,
2013-07-05 03:54:00,74.0,70.2,30.13,WSW,246,0.0,0.0,88,0.00,CLR,CLR,0.00,WeatherDisplay:10.36,2013-07-05 07:54:00,
2013-07-05 03:59:00,74.0,70.2,30.13,WSW,246,0.0,0.0,88,0.00,CLR,CLR,0.00,WeatherDisplay:10.36,2013-07-05 07:59:00,
2013-07-05 04:04:00,73.9,70.1,30.13,WSW,246,0.0,0.0,88,0.00,CLR,CLR,0.00,WeatherDisplay:10.36,2013-07-05 08:04:00,
2013-07-05 04:09:00,73.9,70.1,30.13,WSW,246,0.0,0.0,88,0.00,CLR,CLR,0.00,WeatherDisplay:10.36,2013-07-05 08:09:00,
2013-07-05 04:15:00,73.9,70.1,30.13,WSW,246,0.0,0.0,88,0.00,CLR,CLR,0.00,WeatherDisplay:10.36,2013-07-05 08:15:00,
2013-07-05 04:20:00,73.7,69.9,30.13,WSW,246,0.0,0.0,88,0.00,CLR,CLR,0.00,WeatherDisplay:10.36,2013-07-05 08:20:00,
2013-07-05 04:25:00,73.7,70.3,30.13,WSW,246,0.0,0.0,89,0.00,CLR,CLR,0.00,WeatherDisplay:10.36,2013-07-05 08:25:00,
2013-07-05 04:30:00,73.5,70.1,30.13,WSW,246,0.0,0.0,89,0.00,CLR,CLR,0.00,WeatherDisplay:10.36,2013-07-05 08:30:00,
2013-07-05 04:35:00,73.5,70.1,30.13,WSW,246,0.0,0.0,89,0.00,CLR,CLR,0.00,WeatherDisplay:10.36,2013-07-05 08:35:00,
2013-07-05 04:40:00,73.3,69.9,30.13,WSW,246,0.0,0.0,89,0.00,CLR,CLR,0.00,WeatherDisplay:10.36,2013-07-05 08:40:00,
2013-07-05 04:45:00,73.3,69.9,30.13,WSW,246,0.0,0.0,89,0.00,CLR,CLR,0.00,WeatherDisplay:10.36,2013-07-05 08:45:00,
2013-07-05 04:51:00,73.2,70.1,30.13,WSW,246,0.0,0.0,90,0.00,CLR,CLR,0.00,WeatherDisplay:10.36,2013-07-05 08:51:00,
2013-07-05 04:56:00,73.2,70.1,30.14,WSW,246,0.0,0.0,90,0.00,CLR,CLR,0.00,WeatherDisplay:10.36,2013-07-05 08:56:00,
2013-07-05 05:01:00,73.2,70.1,30.13,WSW,246,0.0,0.0,90,0.00,CLR,CLR,0.00,WeatherDisplay:10.36,2013-07-05 09:01:00,
2013-07-05 05:07:00,73.2,70.1,30.14,WSW,246,0.0,0.0,90,0.00,CLR,CLR,0.00,WeatherDisplay:10.36,2013-07-05 09:07:00,
2013-07-05 05:13:00,73.2,70.1,30.14,WSW,246,0.0,0.0,90,0.00,CLR,CLR,0.00,WeatherDisplay:10.36,2013-07-05 09:13:00,
2013-07-05 05:18:00,73.0,69.9,30.14,WSW,246,0.0,0.0,90,0.00,CLR,CLR,0.00,WeatherDisplay:10.36,2013-07-05 09:18:00,
2013-07-05 05:24:00,73.0,69.9,30.14,WSW,246,0.0,0.0,90,0.00,CLR,CLR,0.00,WeatherDisplay:10.36,2013-07-05 09:24:00,
2013-07-05 05:29:00,73.0,69.9,30.14,WSW,246,0.0,0.0,90,0.00,CLR,CLR,0.00,WeatherDisplay:10.36,2013-07-05 09:29:00,
2013-07-05 05:34:00,73.0,69.9,30.14,WSW,246,0.0,0.0,90,0.00,CLR,CLR,0.00,WeatherDisplay:10.36,2013-07-05 09:34:00,
2013-07-05 05:39:00,73.0,69.9,30.14,WSW,246,0.0,0.0,90,0.00,CLR,CLR,0.00,WeatherDisplay:10.36,2013-07-05 09:39:00,
2013-07-05 05:44:00,72.8,69.7,30.15,WSW,246,0.0,0.0,90,0.00,CLR,CLR,0.00,WeatherDisplay:10.36,2013-07-05 09:44:00,
2013-07-05 05:49:00,72.8,70.0,30.15,WSW,246,0.0,0.0,91,0.00,CLR,CLR,0.00,WeatherDisplay:10.36,2013-07-05 09:49:00,
2013-07-05 05:55:00,72.8,70.0,30.15,WSW,246,0.0,0.0,91,0.00,,,0.00,WeatherDisplay:10.36,2013-07-05 09:55:00,
2013-07-05 06:00:00,72.8,70.0,30.15,WSW,246,0.0,0.0,91,0.00,CLR,CLR,0.00,WeatherDisplay:10.36,2013-07-05 10:00:00,
2013-07-05 06:05:00,72.8,70.0,30.15,WSW,246,0.0,0.0,91,0.00,CLR,CLR,0.00,WeatherDisplay:10.36,2013-07-05 10:05:00,
2013-07-05 06:10:00,72.8,70.0,30.15,WSW,246,0.0,0.0,91,0.00,CLR,CLR,0.00,WeatherDisplay:10.36,2013-07-05 10:10:00,
2013-07-05 06:15:00,73.0,70.5,30.15,WSW,246,0.0,0.0,92,0.00,CLR,CLR,0.00,WeatherDisplay:10.36,2013-07-05 10:15:00,
2013-07-05 06:21:00,73.0,70.5,30.14,WSW,246,0.0,0.0,92,0.00,CLR,CLR,0.00,WeatherDisplay:10.36,2013-07-05 10:21:00,
2013-07-05 06:26:00,73.0,70.5,30.14,WSW,246,0.0,0.0,92,0.00,CLR,CLR,0.00,WeatherDisplay:10.36,2013-07-05 10:26:00,
2013-07-05 06:31:00,73.2,70.7,30.14,South,191,0.0,0.0,92,0.00,CLR,CLR,0.00,WeatherDisplay:10.36,2013-07-05 10:31:00,
2013-07-05 06:36:00,73.2,70.7,30.14,South,191,0.0,0.0,92,0.00,CLR,CLR,0.00,WeatherDisplay:10.36,2013-07-05 10:36:00,
2013-07-05 06:42:00,73.3,70.8,30.14,South,191,0.0,0.0,92,0.00,CLR,CLR,0.00,WeatherDisplay:10.36,2013-07-05 10:42:00,
2013-07-05 06:47:00,73.5,71.0,30.14,South,191,0.0,0.0,92,0.00,CLR,CLR,0.00,WeatherDisplay:10.36,2013-07-05 10:47:00,
2013-07-05 06:52:00,73.7,70.9,30.14,SSE,149,2.3,2.3,91,0.00,CLR,CLR,0.00,WeatherDisplay:10.36,2013-07-05 10:52:00,
2013-07-05 06:57:00,73.7,70.9,30.15,SSE,150,1.2,1.2,91,0.00,CLR,CLR,0.00,WeatherDisplay:10.36,2013-07-05 10:57:00,
2013-07-05 07:02:00,73.9,71.1,30.15,SW,216,1.2,1.2,91,0.00,CLR,CLR,0.00,WeatherDisplay:10.36,2013-07-05 11:02:00,
2013-07-05 07:07:00,74.0,71.2,30.15,SW,216,0.0,0.0,91,0.00,CLR,CLR,0.00,WeatherDisplay:10.36,2013-07-05 11:07:00,
2013-07-05 07:13:00,74.2,71.1,30.15,ESE,106,0.0,0.0,90,0.00,CLR,CLR,0.00,WeatherDisplay:10.36,2013-07-05 11:13:00,
2013-07-05 07:18:00,74.4,71.3,30.15,West,263,0.0,0.0,90,0.00,CLR,CLR,0.00,WeatherDisplay:10.36,2013-07-05 11:18:00,
2013-07-05 07:23:00,74.6,71.5,30.15,SW,230,0.0,0.0,90,0.00,CLR,CLR,0.00,WeatherDisplay:10.36,2013-07-05 11:23:00,
2013-07-05 07:28:00,74.7,71.6,30.15,SE,124,1.0,0.0,90,0.00,CLR,CLR,0.00,WeatherDisplay:10.36,2013-07-05 11:28:00,
2013-07-05 07:33:00,74.9,71.4,30.15,SW,235,1.2,0.0,89,0.00,CLR,CLR,0.00,WeatherDisplay:10.36,2013-07-05 11:33:00,
2013-07-05 07:39:00,75.1,71.3,30.15,SSW,197,1.2,1.2,88,0.00,CLR,CLR,0.00,WeatherDisplay:10.36,2013-07-05 11:39:00,
2013-07-05 07:44:00,75.3,71.5,30.15,SSW,202,0.0,0.0,88,0.00,CLR,CLR,0.00,WeatherDisplay:10.36,2013-07-05 11:44:00,
2013-07-05 07:49:00,75.4,71.6,30.15,WSW,239,1.0,0.0,88,0.00,CLR,CLR,0.00,WeatherDisplay:10.36,2013-07-05 11:49:00,
2013-07-05 07:54:00,75.6,71.5,30.15,WSW,239,0.0,0.0,87,0.00,CLR,CLR,0.00,WeatherDisplay:10.36,2013-07-05 11:54:00,
2013-07-05 07:59:00,75.8,71.7,30.15,WSW,250,1.2,0.0,87,0.00,CLR,CLR,0.00,WeatherDisplay:10.36,2013-07-05 11:59:00,
2013-07-05 08:05:00,76.0,71.5,30.15,WSW,242,0.0,0.0,86,0.00,CLR,CLR,0.00,WeatherDisplay:10.36,2013-07-05 12:05:00,
2013-07-05 08:10:00,76.1,71.6,30.15,WSW,242,0.0,0.0,86,0.00,CLR,CLR,0.00,WeatherDisplay:10.36,2013-07-05 12:10:00,
2013-07-05 08:15:00,76.1,71.3,30.15,SW,233,2.3,0.0,85,0.00,CLR,CLR,0.00,WeatherDisplay:10.36,2013-07-05 12:15:00,
2013-07-05 08:20:00,76.3,71.5,30.15,WSW,242,0.0,2.0,85,0.00,,,0.00,WeatherDisplay:10.36,2013-07-05 12:20:00,
2013-07-05 08:25:00,76.7,71.8,30.15,SW,222,1.2,1.2,85,0.00,CLR,CLR,0.00,WeatherDisplay:10.36,2013-07-05 12:25:00,
2013-07-05 08:31:00,76.8,71.6,30.15,South,176,0.0,0.0,84,0.00,CLR,CLR,0.00,WeatherDisplay:10.36,2013-07-05 12:31:00,
2013-07-05 08:36:00,77.0,71.8,30.15,South,176,1.2,0.0,84,0.00,CLR,CLR,0.00,WeatherDisplay:10.36,2013-07-05 12:36:00,
2013-07-05 08:41:00,77.2,72.0,30.15,South,176,0.0,0.0,84,0.00,CLR,CLR,0.00,WeatherDisplay:10.36,2013-07-05 12:41:00,
2013-07-05 08:47:00,77.4,71.8,30.15,South,171,1.2,1.2,83,0.00,CLR,CLR,0.00,WeatherDisplay:10.36,2013-07-05 12:47:00,
2013-07-05 08:52:00,77.6,71.7,30.15,SW,236,0.0,0.0,82,0.00,CLR,CLR,0.00,WeatherDisplay:10.36,2013-07-05 12:52:00,
2013-07-05 08:57:00,77.9,72.0,30.15,WSW,248,0.0,0.0,82,0.00,CLR,CLR,0.00,WeatherDisplay:10.36,2013-07-05 12:57:00,
2013-07-05 09:02:00,78.1,71.8,30.15,North,4,0.0,0.0,81,0.00,CLR,CLR,0.00,WeatherDisplay:10.36,2013-07-05 13:02:00,
2013-07-05 09:07:00,78.3,72.0,30.14,SSE,147,0.0,0.0,81,0.00,CLR,CLR,0.00,WeatherDisplay:10.36,2013-07-05 13:07:00,
2013-07-05 09:12:00,78.6,71.5,30.14,West,260,3.5,3.5,79,0.00,CLR,CLR,0.00,WeatherDisplay:10.36,2013-07-05 13:12:00,
2013-07-05 09:17:00,78.8,71.7,30.14,West,259,0.0,0.0,79,0.00,CLR,CLR,0.00,WeatherDisplay:10.36,2013-07-05 13:17:00,
2013-07-05 09:22:00,79.2,71.7,30.14,WSW,243,0.0,0.0,78,0.00,CLR,CLR,0.00,WeatherDisplay:10.36,2013-07-05 13:22:00,
2013-07-05 09:27:00,79.6,71.8,30.14,WSW,252,3.5,0.0,77,0.00,CLR,CLR,0.00,WeatherDisplay:10.36,2013-07-05 13:27:00,
2013-07-05 09:33:00,79.8,71.6,30.13,SW,219,4.6,4.6,76,0.00,CLR,CLR,0.00,WeatherDisplay:10.36,2013-07-05 13:33:00,
2013-07-05 09:38:00,79.9,71.3,30.13,West,259,0.0,0.0,75,0.00,CLR,CLR,0.00,WeatherDisplay:10.36,2013-07-05 13:38:00,
2013-07-05 09:43:00,80.1,71.5,30.13,WSW,248,0.0,0.0,75,0.00,CLR,CLR,0.00,WeatherDisplay:10.36,2013-07-05 13:43:00,
2013-07-05 09:48:00,80.3,71.3,30.13,WSW,243,3.0,3.0,74,0.00,CLR,CLR,0.00,WeatherDisplay:10.36,2013-07-05 13:48:00,
2013-07-05 09:54:00,80.7,71.6,30.13,SSW,213,2.0,2.0,74,0.00,CLR,CLR,0.00,WeatherDisplay:10.36,2013-07-05 13:54:00,
2013-07-05 09:59:00,80.9,71.4,30.13,SW,231,3.0,3.0,73,0.00,CLR,CLR,0.00,WeatherDisplay:10.36,2013-07-05 13:59:00,
2013-07-05 10:04:00,81.2,71.3,30.13,SSW,202,1.0,1.0,72,0.00,CLR,CLR,0.00,WeatherDisplay:10.36,2013-07-05 14:04:00,
2013-07-05 10:09:00,81.4,71.5,30.14,WSW,255,1.2,2.3,72,0.00,CLR,CLR,0.00,WeatherDisplay:10.36,2013-07-05 14:09:00,
2013-07-05 10:15:00,81.6,70.9,30.13,SW,222,0.0,3.0,70,0.00,CLR,CLR,0.00,WeatherDisplay:10.36,2013-07-05 14:15:00,
2013-07-05 10:20:00,81.8,71.1,30.13,SW,236,1.0,2.0,70,0.00,CLR,CLR,0.00,WeatherDisplay:10.36,2013-07-05 14:20:00,
2013-07-05 10:25:00,82.0,71.2,30.13,WSW,242,1.0,5.0,70,0.00,CLR,CLR,0.00,WeatherDisplay:10.36,2013-07-05 14:25:00,
2013-07-05 10:30:00,82.0,71.2,30.13,WSW,252,7.0,7.0,70,0.00,CLR,CLR,0.00,WeatherDisplay:10.36,2013-07-05 14:30:00,
2013-07-05 10:36:00,82.2,70.6,30.13,West,267,4.0,4.0,68,0.00,CLR,CLR,0.00,WeatherDisplay:10.36,2013-07-05 14:36:00,
2013-07-05 10:42:00,82.4,71.6,30.13,SSW,203,1.2,1.2,70,0.00,CLR,CLR,0.00,WeatherDisplay:10.36,2013-07-05 14:42:00,
2013-07-05 10:47:00,82.8,71.6,30.12,WSW,240,3.5,3.5,69,0.00,CLR,CLR,0.00,WeatherDisplay:10.36,2013-07-05 14:47:00,
2013-07-05 10:52:00,83.0,71.8,30.12,SSE,167,0.0,0.0,69,0.00,CLR,CLR,0.00,WeatherDisplay:10.36,2013-07-05 14:52:00,
2013-07-05 10:57:00,83.0,71.8,30.12,WSW,239,0.0,0.0,69,0.00,CLR,CLR,0.00,WeatherDisplay:10.36,2013-07-05 14:57:00,
2013-07-05 11:02:00,83.2,71.5,30.12,WSW,241,0.0,0.0,68,0.00,CLR,CLR,0.00,WeatherDisplay:10.36,2013-07-05 15:02:00,
2013-07-05 11:07:00,83.4,71.7,30.12,WSW,238,0.0,0.0,68,0.00,CLR,CLR,0.00,WeatherDisplay:10.36,2013-07-05 15:07:00,
2013-07-05 11:12:00,83.8,71.7,30.12,WSW,238,1.2,1.2,67,0.00,CLR,CLR,0.00,WeatherDisplay:10.36,2013-07-05 15:12:00,
2013-07-05 11:17:00,84.0,71.9,30.12,SSE,154,0.0,0.0,67,0.00,CLR,CLR,0.00,WeatherDisplay:10.36,2013-07-05 15:17:00,
2013-07-05 11:22:00,84.1,72.0,30.12,WSW,247,0.0,0.0,67,0.00,CLR,CLR,0.00,WeatherDisplay:10.36,2013-07-05 15:22:00,
2013-07-05 11:27:00,84.5,71.9,30.12,SSE,164,1.2,1.2,66,0.00,CLR,CLR,0.00,WeatherDisplay:10.36,2013-07-05 15:27:00,
2013-07-05 11:33:00,84.7,71.2,30.12,South,188,2.3,0.0,64,0.00,CLR,CLR,0.00,WeatherDisplay:10.36,2013-07-05 15:33:00,
2013-07-05 11:38:00,85.1,72.5,30.12,South,174,1.2,0.0,66,0.00,CLR,CLR,0.00,WeatherDisplay:10.36,2013-07-05 15:38:00,
2013-07-05 11:43:00,85.5,71.5,30.12,SSE,165,1.2,1.2,63,0.00,CLR,CLR,0.00,WeatherDisplay:10.36,2013-07-05 15:43:00,
2013-07-05 11:48:00,85.9,71.4,30.12,SSE,155,1.2,0.0,62,0.00,CLR,CLR,0.00,WeatherDisplay:10.36,2013-07-05 15:48:00,
2013-07-05 11:51:00,86.1,71.6,30.12,WSW,246,4.6,4.6,62,0.00,CLR,CLR,0.00,WeatherDisplay:10.36,2013-07-05 15:51:00,
2013-07-05 11:56:00,86.5,71.9,30.12,WSW,250,2.3,2.3,62,0.00,CLR,CLR,0.00,WeatherDisplay:10.36,2013-07-05 15:56:00,
2013-07-05 12:01:00,86.7,72.1,30.11,SSW,211,0.0,0.0,62,0.00,CLR,CLR,0.00,WeatherDisplay:10.36,2013-07-05 16:01:00,
2013-07-05 12:06:00,87.0,71.9,30.11,SSE,148,1.2,1.2,61,0.00,CLR,CLR,0.00,WeatherDisplay:10.36,2013-07-05 16:06:00,
2013-07-05 12:12:00,87.4,71.8,30.11,WSW,257,0.0,0.0,60,0.00,CLR,CLR,0.00,WeatherDisplay:10.36,2013-07-05 16:12:00,
2013-07-05 12:17:00,87.8,71.7,30.11,WSW,243,1.2,0.0,59,0.00,CLR,CLR,0.00,WeatherDisplay:10.36,2013-07-05 16:17:00,
2013-07-05 12:22:00,88.2,71.6,30.11,SW,221,0.0,0.0,58,0.00,CLR,CLR,0.00,WeatherDisplay:10.36,2013-07-05 16:22:00,
2013-07-05 12:28:00,88.6,71.9,30.11,WSW,241,3.5,3.5,58,0.00,CLR,CLR,0.00,WeatherDisplay:10.36,2013-07-05 16:28:00,
2013-07-05 12:33:00,88.8,71.6,30.11,WNW,295,1.2,1.2,57,0.00,CLR,CLR,0.00,WeatherDisplay:10.36,2013-07-05 16:33:00,
2013-07-05 12:38:00,88.8,72.1,30.11,SW,221,1.2,1.2,58,0.00,CLR,CLR,0.00,WeatherDisplay:10.36,2013-07-05 16:38:00,
2013-07-05 12:43:00,88.6,71.9,30.11,West,260,2.3,2.3,58,0.00,CLR,CLR,0.00,WeatherDisplay:10.36,2013-07-05 16:43:00,
2013-07-05 12:48:00,88.6,71.9,30.11,SSE,155,1.2,1.2,58,0.00,CLR,CLR,0.00,WeatherDisplay:10.36,2013-07-05 16:48:00,
2013-07-05 12:53:00,88.8,71.6,30.10,SSE,147,1.0,1.0,57,0.00,CLR,CLR,0.00,WeatherDisplay:10.36,2013-07-05 16:53:00,
2013-07-05 12:58:00,88.8,70.5,30.10,SE,135,2.3,2.3,55,0.00,CLR,CLR,0.00,WeatherDisplay:10.36,2013-07-05 16:58:00,
2013-07-05 13:03:00,89.0,69.6,30.10,SW,236,3.5,3.5,53,0.00,CLR,CLR,0.00,WeatherDisplay:10.36,2013-07-05 17:03:00,
2013-07-05 13:08:00,89.3,69.9,30.10,ESE,115,2.3,2.3,53,0.00,CLR,CLR,0.00,WeatherDisplay:10.36,2013-07-05 17:08:00,
2013-07-05 13:13:00,89.5,70.1,30.10,South,175,2.3,2.3,53,0.00,CLR,CLR,0.00,WeatherDisplay:10.36,2013-07-05 17:13:00,
2013-07-05 13:18:00,89.5,70.1,30.10,SSE,157,3.5,3.5,53,0.00,CLR,CLR,0.00,WeatherDisplay:10.36,2013-07-05 17:18:00,
2013-07-05 13:24:00,89.3,69.9,30.10,ESE,119,2.3,2.3,53,0.00,CLR,CLR,0.00,WeatherDisplay:10.36,2013-07-05 17:24:00,
2013-07-05 13:29:00,89.3,69.9,30.09,SSE,152,1.2,1.2,53,0.00,CLR,CLR,0.00,WeatherDisplay:10.36,2013-07-05 17:29:00,
2013-07-05 13:34:00,89.3,69.9,30.09,SE,133,1.2,1.2,53,0.00,CLR,CLR,0.00,WeatherDisplay:10.36,2013-07-05 17:34:00,
2013-07-05 13:39:00,89.7,70.3,30.09,South,181,3.0,3.0,53,0.00,CLR,CLR,0.00,WeatherDisplay:10.36,2013-07-05 17:39:00,
2013-07-05 13:44:00,90.1,69.5,30.09,SSW,205,4.6,4.6,51,0.00,CLR,CLR,0.00,WeatherDisplay:10.36,2013-07-05 17:44:00,
2013-07-05 13:49:00,90.5,69.3,30.09,WSW,255,2.3,0.0,50,0.00,CLR,CLR,0.00,WeatherDisplay:10.36,2013-07-05 17:49:00,
2013-07-05 13:54:00,91.0,70.4,30.09,WSW,240,3.5,0.0,51,0.00,CLR,CLR,0.00,WeatherDisplay:10.36,2013-07-05 17:54:00,
2013-07-05 13:59:00,91.0,70.4,30.09,SW,214,2.3,2.3,51,0.00,CLR,CLR,0.00,WeatherDisplay:10.36,2013-07-05 17:59:00,
2013-07-05 14:05:00,91.4,70.7,30.09,WSW,237,0.0,4.0,51,0.00,CLR,CLR,0.00,WeatherDisplay:10.36,2013-07-05 18:05:00,
2013-07-05 14:10:00,91.4,69.6,30.09,SW,215,0.0,4.0,49,0.00,CLR,CLR,0.00,WeatherDisplay:10.36,2013-07-05 18:10:00,
2013-07-05 14:15:00,91.4,69.6,30.09,SW,234,2.3,2.3,49,0.00,CLR,CLR,0.00,WeatherDisplay:10.36,2013-07-05 18:15:00,
2013-07-05 14:20:00,91.4,69.0,30.08,SSE,160,1.2,1.2,48,0.00,CLR,CLR,0.00,WeatherDisplay:10.36,2013-07-05 18:20:00,
2013-07-05 14:25:00,91.4,69.0,30.08,West,261,5.0,5.0,48,0.00,CLR,CLR,0.00,WeatherDisplay:10.36,2013-07-05 18:25:00,
2013-07-05 14:30:00,91.8,69.3,30.08,SSE,162,4.6,4.6,48,0.00,CLR,CLR,0.00,WeatherDisplay:10.36,2013-07-05 18:30:00,
2013-07-05 14:35:00,91.4,69.0,30.08,SSE,149,2.0,2.0,48,0.00,CLR,CLR,0.00,WeatherDisplay:10.36,2013-07-05 18:35:00,
2013-07-05 14:40:00,90.7,68.9,30.08,East,86,3.5,3.5,49,0.00,CLR,CLR,0.00,WeatherDisplay:10.36,2013-07-05 18:40:00,
2013-07-05 14:46:00,91.0,69.8,30.07,WSW,240,0.0,0.0,50,0.00,CLR,CLR,0.00,WeatherDisplay:10.36,2013-07-05 18:46:00,
2013-07-05 14:51:00,91.4,69.6,30.07,SSE,158,5.0,5.0,49,0.00,CLR,CLR,0.00,WeatherDisplay:10.36,2013-07-05 18:51:00,
2013-07-05 14:56:00,91.0,68.6,30.07,South,186,1.2,0.0,48,0.00,CLR,CLR,0.00,WeatherDisplay:10.36,2013-07-05 18:56:00,
2013-07-05 15:02:00,91.2,68.8,30.07,WSW,244,4.0,4.0,48,0.00,CLR,CLR,0.00,WeatherDisplay:10.36,2013-07-05 19:02:00,
2013-07-05 15:16:00,91.4,69.6,30.07,East,83,1.2,1.2,49,0.00,CLR,CLR,0.00,WeatherDisplay:10.36,2013-07-05 19:16:00,
2013-07-05 15:21:00,91.6,68.5,30.07,West,274,4.0,4.0,47,0.00,CLR,CLR,0.00,WeatherDisplay:10.36,2013-07-05 19:21:00,
2013-07-05 15:26:00,91.4,68.3,30.06,SE,144,3.5,3.5,47,0.00,CLR,CLR,0.00,WeatherDisplay:10.36,2013-07-05 19:26:00,
2013-07-05 15:32:00,91.4,69.0,30.06,SSE,158,2.3,2.3,48,0.00,CLR,CLR,0.00,WeatherDisplay:10.36,2013-07-05 19:32:00,
2013-07-05 15:37:00,91.4,68.3,30.06,WSW,242,3.5,3.5,47,0.00,CLR,CLR,0.00,WeatherDisplay:10.36,2013-07-05 19:37:00,
2013-07-05 15:42:00,91.8,69.3,30.06,West,274,1.2,1.2,48,0.00,CLR,CLR,0.00,WeatherDisplay:10.36,2013-07-05 19:42:00,
2013-07-05 15:47:00,91.8,68.7,30.06,West,261,5.0,5.0,47,0.00,CLR,CLR,0.00,WeatherDisplay:10.36,2013-07-05 19:47:00,
2013-07-05 15:52:00,92.3,69.2,30.06,SW,229,2.3,2.3,47,0.00,CLR,CLR,0.00,WeatherDisplay:10.36,2013-07-05 19:52:00,
2013-07-05 15:57:00,92.7,68.9,30.06,WSW,239,5.8,5.8,46,0.00,CLR,CLR,0.00,WeatherDisplay:10.36,2013-07-05 19:57:00,
2013-07-05 16:02:00,92.9,69.7,30.06,SW,221,3.5,3.5,47,0.00,CLR,CLR,0.00,WeatherDisplay:10.36,2013-07-05 20:02:00,
2013-07-05 16:07:00,92.7,68.9,30.05,SSW,195,1.2,1.2,46,0.00,CLR,CLR,0.00,WeatherDisplay:10.36,2013-07-05 20:07:00,
2013-07-05 16:12:00,92.7,69.5,30.05,SSW,211,2.3,0.0,47,0.00,CLR,CLR,0.00,WeatherDisplay:10.36,2013-07-05 20:12:00,
2013-07-05 16:17:00,92.7,68.9,30.05,South,175,2.3,0.0,46,0.00,CLR,CLR,0.00,WeatherDisplay:10.36,2013-07-05 20:17:00,
2013-07-05 16:22:00,92.3,68.5,30.05,West,275,2.3,0.0,46,0.00,CLR,CLR,0.00,WeatherDisplay:10.36,2013-07-05 20:22:00,
2013-07-05 16:27:00,92.1,69.0,30.04,SW,234,3.5,3.5,47,0.00,CLR,CLR,0.00,WeatherDisplay:10.36,2013-07-05 20:27:00,
2013-07-05 16:32:00,92.3,67.9,30.04,South,178,3.5,3.5,45,0.00,CLR,CLR,0.00,WeatherDisplay:10.36,2013-07-05 20:32:00,
2013-07-05 16:38:00,92.1,68.3,30.04,South,176,2.3,2.3,46,0.00,CLR,CLR,0.00,WeatherDisplay:10.36,2013-07-05 20:38:00,
2013-07-05 16:43:00,91.2,67.5,30.04,WSW,248,9.2,9.2,46,0.00,CLR,CLR,0.00,WeatherDisplay:10.36,2013-07-05 20:43:00,
2013-07-05 16:48:00,90.7,67.7,30.04,SSE,160,1.2,1.2,47,0.00,CLR,CLR,0.00,WeatherDisplay:10.36,2013-07-05 20:48:00,
2013-07-05 16:53:00,91.0,67.3,30.04,SSW,202,6.9,6.9,46,0.00,CLR,CLR,0.00,WeatherDisplay:10.36,2013-07-05 20:53:00,
2013-07-05 16:58:00,91.6,67.3,30.04,North,357,3.5,3.5,45,0.00,CLR,CLR,0.00,WeatherDisplay:10.36,2013-07-05 20:58:00,
2013-07-05 17:03:00,92.1,68.3,30.04,WSW,237,3.5,3.5,46,0.00,CLR,CLR,0.00,WeatherDisplay:10.36,2013-07-05 21:03:00,
2013-07-05 17:08:00,92.3,68.5,30.04,NW,308,2.3,2.3,46,0.00,CLR,CLR,0.00,WeatherDisplay:10.36,2013-07-05 21:08:00,
2013-07-05 17:13:00,92.5,68.7,30.04,SW,236,3.5,0.0,46,0.00,CLR,CLR,0.00,WeatherDisplay:10.36,2013-07-05 21:13:00,
2013-07-05 17:18:00,92.5,68.7,30.04,WSW,248,2.3,2.3,46,0.00,CLR,CLR,0.00,WeatherDisplay:10.36,2013-07-05 21:18:00,
2013-07-05 17:23:00,92.5,69.3,30.04,WSW,248,0.0,0.0,47,0.00,CLR,CLR,0.00,WeatherDisplay:10.36,2013-07-05 21:23:00,
2013-07-05 17:28:00,92.1,69.0,30.03,West,269,2.3,2.3,47,0.00,CLR,CLR,0.00,WeatherDisplay:10.36,2013-07-05 21:28:00,
2013-07-05 17:34:00,91.6,68.5,30.03,WSW,256,3.5,3.5,47,0.00,CLR,CLR,0.00,WeatherDisplay:10.36,2013-07-05 21:34:00,
2013-07-05 17:39:00,91.6,69.1,30.03,West,270,3.0,3.0,48,0.00,CLR,CLR,0.00,WeatherDisplay:10.36,2013-07-05 21:39:00,
2013-07-05 17:44:00,91.8,68.1,30.03,WSW,253,2.3,0.0,46,0.00,CLR,CLR,0.00,WeatherDisplay:10.36,2013-07-05 21:44:00,
2013-07-05 17:49:00,91.6,67.9,30.03,SE,136,1.2,0.0,46,0.00,CLR,CLR,0.00,WeatherDisplay:10.36,2013-07-05 21:49:00,
2013-07-05 17:54:00,91.2,68.2,30.03,WSW,252,2.3,0.0,47,0.00,CLR,CLR,0.00,WeatherDisplay:10.36,2013-07-05 21:54:00,
2013-07-05 18:00:00,90.7,67.7,30.03,WSW,250,3.5,3.5,47,0.00,CLR,CLR,0.00,WeatherDisplay:10.36,2013-07-05 22:00:00,
2013-07-05 18:05:00,90.7,67.1,30.03,WSW,246,1.0,4.0,46,0.00,CLR,CLR,0.00,WeatherDisplay:10.36,2013-07-05 22:05:00,
2013-07-05 18:10:00,90.5,66.9,30.03,WSW,251,1.0,4.0,46,0.00,CLR,CLR,0.00,WeatherDisplay:10.36,2013-07-05 22:10:00,
2013-07-05 18:15:00,90.5,67.5,30.03,WSW,238,1.2,1.2,47,0.00,CLR,CLR,0.00,WeatherDisplay:10.36,2013-07-05 22:15:00,
2013-07-05 18:20:00,90.3,67.9,30.03,South,172,1.0,0.0,48,0.00,CLR,CLR,0.00,WeatherDisplay:10.36,2013-07-05 22:20:00,
2013-07-05 18:25:00,89.9,67.6,30.03,SW,223,3.5,3.5,48,0.00,CLR,CLR,0.00,WeatherDisplay:10.36,2013-07-05 22:25:00,
2013-07-05 18:30:00,89.7,68.0,30.03,West,259,1.2,1.2,49,0.00,CLR,CLR,0.00,WeatherDisplay:10.36,2013-07-05 22:30:00,
2013-07-05 18:35:00,89.5,67.2,30.03,South,183,2.3,2.3,48,0.00,CLR,CLR,0.00,WeatherDisplay:10.36,2013-07-05 22:35:00,
2013-07-05 18:36:00,89.5,67.8,30.03,SW,228,3.0,3.0,49,0.00,CLR,CLR,0.00,WeatherDisplay:10.36,2013-07-05 22:36:00,
2013-07-05 18:41:00,89.0,67.9,30.03,WSW,254,1.2,0.0,50,0.00,CLR,CLR,0.00,WeatherDisplay:10.36,2013-07-05 22:41:00,
2013-07-05 18:46:00,88.8,67.8,30.03,WSW,242,0.0,0.0,50,0.00,CLR,CLR,0.00,WeatherDisplay:10.36,2013-07-05 22:46:00,
2013-07-05 18:51:00,88.6,68.2,30.03,SW,231,1.2,0.0,51,0.00,CLR,CLR,0.00,WeatherDisplay:10.36,2013-07-05 22:51:00,
2013-07-05 18:56:00,88.6,68.2,30.03,WSW,249,3.5,3.5,51,0.00,CLR,CLR,0.00,WeatherDisplay:10.36,2013-07-05 22:56:00,
2013-07-05 19:01:00,88.4,68.0,30.03,West,260,0.0,0.0,51,0.00,CLR,CLR,0.00,WeatherDisplay:10.36,2013-07-05 23:01:00,
2013-07-05 19:06:00,88.2,68.4,30.03,WSW,252,0.0,0.0,52,0.00,CLR,CLR,0.00,WeatherDisplay:10.36,2013-07-05 23:06:00,
2013-07-05 19:11:00,88.2,68.4,30.03,SW,226,3.5,3.5,52,0.00,CLR,CLR,0.00,WeatherDisplay:10.36,2013-07-05 23:11:00,
2013-07-05 19:16:00,88.0,69.3,30.03,WSW,256,2.3,2.3,54,0.00,CLR,CLR,0.00,WeatherDisplay:10.36,2013-07-05 23:16:00,
2013-07-05 19:22:00,88.0,69.3,30.03,WSW,256,0.0,0.0,54,0.00,CLR,CLR,0.00,WeatherDisplay:10.36,2013-07-05 23:22:00,
2013-07-05 19:27:00,87.8,69.1,30.03,SW,235,0.0,0.3,54,0.00,CLR,CLR,0.00,WeatherDisplay:10.36,2013-07-05 23:27:00,
2013-07-05 19:32:00,87.6,68.9,30.03,WSW,255,3.5,3.5,54,0.00,CLR,CLR,0.00,WeatherDisplay:10.36,2013-07-05 23:32:00,
2013-07-05 19:37:00,87.4,69.3,30.03,West,259,3.0,3.0,55,0.00,CLR,CLR,0.00,WeatherDisplay:10.36,2013-07-05 23:37:00,
2013-07-05 19:40:00,87.2,68.5,30.03,WSW,247,3.5,0.0,54,0.00,CLR,CLR,0.00,WeatherDisplay:10.36,2013-07-05 23:40:00,
2013-07-05 19:45:00,87.0,68.9,30.03,ESE,105,0.0,0.0,55,0.00,CLR,CLR,0.00,WeatherDisplay:10.36,2013-07-05 23:45:00,
2013-07-05 19:50:00,86.7,68.1,30.03,SW,228,1.2,0.0,54,0.00,CLR,CLR,0.00,WeatherDisplay:10.36,2013-07-05 23:50:00,
2013-07-05 19:55:00,86.5,67.9,30.03,WSW,249,2.3,2.3,54,0.00,CLR,CLR,0.00,WeatherDisplay:10.36,2013-07-05 23:55:00,
2013-07-05 20:00:00,86.1,68.0,30.02,West,259,0.0,0.2,55,0.00,CLR,CLR,0.00,WeatherDisplay:10.36,2013-07-06 00:00:00,
2013-07-05 20:05:00,85.9,68.4,30.03,West,259,1.0,1.0,56,0.00,CLR,CLR,0.00,WeatherDisplay:10.36,2013-07-06 00:05:00,
2013-07-05 20:10:00,85.7,68.2,30.03,WSW,244,0.0,0.0,56,0.00,CLR,CLR,0.00,WeatherDisplay:10.36,2013-07-06 00:10:00,
2013-07-05 20:16:00,85.5,68.0,30.03,WSW,245,2.3,2.3,56,0.00,CLR,CLR,0.00,WeatherDisplay:10.36,2013-07-06 00:16:00,
2013-07-05 20:21:00,85.3,68.3,30.03,WSW,246,0.0,0.0,57,0.00,CLR,CLR,0.00,WeatherDisplay:10.36,2013-07-06 00:21:00,
2013-07-05 20:26:00,85.1,68.2,30.03,WSW,246,0.0,0.0,57,0.00,CLR,CLR,0.00,WeatherDisplay:10.36,2013-07-06 00:26:00,
2013-07-05 20:31:00,84.9,68.5,30.03,WSW,246,0.0,0.0,58,0.00,CLR,CLR,0.00,WeatherDisplay:10.36,2013-07-06 00:31:00,
2013-07-05 20:36:00,84.7,68.8,30.03,WSW,246,0.0,0.0,59,0.00,CLR,CLR,0.00,WeatherDisplay:10.36,2013-07-06 00:36:00,
2013-07-05 20:41:00,84.5,68.6,30.03,WSW,246,0.0,0.0,59,0.00,CLR,CLR,0.00,WeatherDisplay:10.36,2013-07-06 00:41:00,
2013-07-05 20:47:00,84.1,68.2,30.03,WSW,246,1.0,1.0,59,0.00,CLR,CLR,0.00,WeatherDisplay:10.36,2013-07-06 00:47:00,
2013-07-05 20:52:00,84.0,68.1,30.03,WSW,246,1.2,1.2,59,0.00,CLR,CLR,0.00,WeatherDisplay:10.36,2013-07-06 00:52:00,
2013-07-05 20:57:00,83.8,68.4,30.03,SSW,198,1.2,0.0,60,0.00,CLR,CLR,0.00,WeatherDisplay:10.36,2013-07-06 00:57:00,
2013-07-05 21:02:00,83.8,68.4,30.03,SSW,198,1.0,0.0,60,0.00,CLR,CLR,0.00,WeatherDisplay:10.36,2013-07-06 01:02:00,
2013-07-05 21:03:00,83.6,68.2,30.03,SSW,198,1.2,0.0,60,0.00,CLR,CLR,0.00,WeatherDisplay:10.36,2013-07-06 01:03:00,
2013-07-05 21:08:00,83.6,68.2,30.03,SSW,198,0.0,0.0,60,0.00,CLR,CLR,0.00,WeatherDisplay:10.36,2013-07-06 01:08:00,
2013-07-05 21:13:00,83.4,68.5,30.03,SW,225,1.2,0.0,61,0.00,CLR,CLR,0.00,WeatherDisplay:10.36,2013-07-06 01:13:00,
2013-07-05 21:18:00,83.4,68.5,30.04,SW,225,0.0,0.0,61,0.00,CLR,CLR,0.00,WeatherDisplay:10.36,2013-07-06 01:18:00,
2013-07-05 21:23:00,83.2,68.3,30.04,SW,225,0.0,0.0,61,0.00,CLR,CLR,0.00,WeatherDisplay:10.36,2013-07-06 01:23:00,
2013-07-05 21:28:00,83.0,68.6,30.04,SW,225,0.0,0.0,62,0.00,CLR,CLR,0.00,WeatherDisplay:10.36,2013-07-06 01:28:00,
2013-07-05 21:29:00,83.0,68.6,30.04,SW,225,0.0,0.0,62,0.00,CLR,CLR,0.00,WeatherDisplay:10.36,2013-07-06 01:29:00,
2013-07-05 21:35:00,82.8,68.4,30.05,SW,225,0.0,0.0,62,0.00,CLR,CLR,0.00,WeatherDisplay:10.36,2013-07-06 01:35:00,
2013-07-05 21:40:00,82.8,68.4,30.05,SW,226,0.0,2.0,62,0.00,CLR,CLR,0.00,WeatherDisplay:10.36,2013-07-06 01:40:00,
2013-07-05 21:45:00,82.6,68.7,30.05,SW,226,0.0,0.0,63,0.00,CLR,CLR,0.00,WeatherDisplay:10.36,2013-07-06 01:45:00,
2013-07-05 21:50:00,82.6,69.2,30.05,SW,226,0.0,0.0,64,0.00,CLR,CLR,0.00,WeatherDisplay:10.36,2013-07-06 01:50:00,
2013-07-05 21:55:00,82.4,69.0,30.05,SW,226,0.0,0.0,64,0.00,CLR,CLR,0.00,WeatherDisplay:10.36,2013-07-06 01:55:00,
2013-07-05 22:01:00,82.4,69.0,30.05,SW,226,0.0,0.0,64,0.00,CLR,CLR,0.00,WeatherDisplay:10.36,2013-07-06 02:01:00,
2013-07-05 22:03:00,82.2,68.8,30.06,SW,226,0.0,0.0,64,0.00,CLR,CLR,0.00,WeatherDisplay:10.36,2013-07-06 02:03:00,
2013-07-05 22:08:00,82.0,69.1,30.06,SW,226,0.0,0.0,65,0.00,CLR,CLR,0.00,WeatherDisplay:10.36,2013-07-06 02:08:00,
2013-07-05 22:13:00,81.8,68.9,30.06,SW,226,0.0,0.0,65,0.00,CLR,CLR,0.00,WeatherDisplay:10.36,2013-07-06 02:13:00,
2013-07-05 22:18:00,81.6,69.1,30.06,SW,226,0.0,0.0,66,0.00,CLR,CLR,0.00,WeatherDisplay:10.36,2013-07-06 02:18:00,
2013-07-05 22:23:00,81.4,69.4,30.06,SW,226,0.0,0.0,67,0.00,CLR,CLR,0.00,WeatherDisplay:10.36,2013-07-06 02:23:00,
2013-07-05 22:28:00,81.2,69.2,30.06,SW,226,0.0,0.0,67,0.00,CLR,CLR,0.00,WeatherDisplay:10.36,2013-07-06 02:28:00,
2013-07-05 22:33:00,81.1,69.5,30.06,SW,226,0.0,0.0,68,0.00,CLR,CLR,0.00,WeatherDisplay:10.36,2013-07-06 02:33:00,
2013-07-05 22:38:00,81.1,69.5,30.06,SW,226,0.0,0.0,68,0.00,CLR,CLR,0.00,WeatherDisplay:10.36,2013-07-06 02:38:00,
2013-07-05 22:44:00,80.9,69.3,30.06,SW,226,0.0,0.0,68,0.00,CLR,CLR,0.00,WeatherDisplay:10.36,2013-07-06 02:44:00,
2013-07-05 22:49:00,80.7,69.6,30.06,SW,226,0.0,0.0,69,0.00,CLR,CLR,0.00,WeatherDisplay:10.36,2013-07-06 02:49:00,
2013-07-05 22:54:00,80.7,69.6,30.06,SW,226,0.0,0.0,69,0.00,CLR,CLR,0.00,WeatherDisplay:10.36,2013-07-06 02:54:00,
2013-07-05 22:59:00,80.5,69.8,30.07,SW,226,0.0,0.0,70,0.00,CLR,CLR,0.00,WeatherDisplay:10.36,2013-07-06 02:59:00,
2013-07-05 23:04:00,80.5,69.8,30.07,SW,226,0.0,0.0,70,0.00,CLR,CLR,0.00,WeatherDisplay:10.36,2013-07-06 03:04:00,
2013-07-05 23:09:00,80.5,69.8,30.07,SW,226,0.0,0.0,70,0.00,CLR,CLR,0.00,WeatherDisplay:10.36,2013-07-06 03:09:00,
2013-07-05 23:14:00,80.3,69.6,30.07,SW,226,1.2,1.2,70,0.00,CLR,CLR,0.00,WeatherDisplay:10.36,2013-07-06 03:14:00,
2013-07-05 23:20:00,80.3,70.0,30.07,SW,226,0.0,0.0,71,0.00,CLR,CLR,0.00,WeatherDisplay:10.36,2013-07-06 03:20:00,
2013-07-05 23:25:00,80.1,69.8,30.07,SW,226,0.0,0.0,71,0.00,CLR,CLR,0.00,WeatherDisplay:10.36,2013-07-06 03:25:00,
2013-07-05 23:30:00,79.9,69.7,30.07,SW,226,0.0,0.0,71,0.00,CLR,CLR,0.00,WeatherDisplay:10.36,2013-07-06 03:30:00,
2013-07-05 23:35:00,79.8,70.0,30.07,SW,226,0.0,0.0,72,0.00,CLR,CLR,0.00,WeatherDisplay:10.36,2013-07-06 03:35:00,
2013-07-05 23:40:00,79.8,70.0,30.07,SW,226,0.0,0.0,72,0.00,CLR,CLR,0.00,WeatherDisplay:10.36,2013-07-06 03:40:00,
2013-07-05 23:45:00,79.6,69.8,30.07,SW,226,0.0,0.0,72,0.00,CLR,CLR,0.00,WeatherDisplay:10.36,2013-07-06 03:45:00,
2013-07-05 23:50:00,79.6,70.2,30.07,SW,226,0.0,0.0,73,0.00,CLR,CLR,0.00,WeatherDisplay:10.36,2013-07-06 03:50:00,
2013-07-05 23:55:00,79.4,70.0,30.07,SW,226,0.0,0.0,73,0.00,CLR,CLR,0.00,WeatherDisplay:10.36,2013-07-06 03:55:00,